| time (UTC) | temp F | wind direction | speed MPH | gust MPH | rain 1hr in | rain 24hr in | rain mn in | humidity % | barometer mb |
| 20260510221343 | 86 | 64 | 8.0 | 14.0 | 0.00 | 0.00 | 0.00 | 70 | 1012.0 |
| 20260510220324 | 86 | 75 | 7.0 | 15.0 | 0.00 | 0.00 | 0.00 | 70 | 1012.0 |
| 20260510215334 | 87 | 56 | 9.0 | 16.0 | 0.00 | 0.00 | 0.00 | 68 | 1012.2 |
| 20260510214325 | 86 | 58 | 7.0 | 13.0 | 0.00 | 0.00 | 0.00 | 69 | 1012.5 |
| 20260510213337 | 87 | 63 | 6.0 | 12.0 | 0.00 | 0.00 | 0.00 | 68 | 1012.6 |
| 20260510212327 | 87 | 83 | 6.0 | 14.0 | 0.00 | 0.00 | 0.00 | 66 | 1012.8 |
| 20260510211338 | 87 | 124 | 5.0 | 8.0 | 0.00 | 0.00 | 0.00 | 69 | 1013.1 |
| 20260510210329 | 87 | 70 | 7.0 | 13.0 | 0.00 | 0.00 | 0.00 | 65 | 1013.3 |
| 20260510205339 | 87 | 96 | 8.0 | 12.0 | 0.00 | 0.00 | 0.00 | 67 | 1013.3 |
| 20260510204331 | 87 | 89 | 4.0 | 10.0 | 0.00 | 0.00 | 0.00 | 65 | 1013.4 |
| 20260510203323 | 87 | 68 | 5.0 | 11.0 | 0.00 | 0.00 | 0.00 | 68 | 1013.5 |
| 20260510202331 | 88 | 82 | 5.0 | 11.0 | 0.00 | 0.00 | 0.00 | 64 | 1013.5 |
| 20260510201341 | 88 | 61 | 3.0 | 11.0 | 0.00 | 0.00 | 0.00 | 64 | 1013.5 |
| 20260510200331 | 88 | 70 | 3.0 | 9.0 | 0.00 | 0.00 | 0.00 | 63 | 1013.4 |
| 20260510195340 | 88 | 271 | 0.0 | 9.0 | 0.00 | 0.00 | 0.00 | 66 | 1013.5 |
| 20260510194328 | 88 | 142 | 4.0 | 11.0 | 0.00 | 0.00 | 0.00 | 66 | 1013.5 |
| 20260510193338 | 87 | 124 | 6.0 | 11.0 | 0.00 | 0.00 | 0.00 | 64 | 1013.5 |
| 20260510192349 | 87 | 124 | 4.0 | 10.0 | 0.00 | 0.00 | 0.00 | 66 | 1013.7 |
| 20260510191339 | 87 | 131 | 3.0 | 10.0 | 0.00 | 0.00 | 0.00 | 66 | 1013.7 |
| 20260510190349 | 87 | 166 | 4.0 | 11.0 | 0.00 | 0.00 | 0.00 | 66 | 1013.5 |
| 20260510185340 | 86 | 150 | 4.0 | 8.0 | 0.00 | 0.00 | 0.00 | 68 | 1013.7 |
| 20260510184350 | 86 | 134 | 5.0 | 10.0 | 0.00 | 0.00 | 0.00 | 68 | 1013.7 |
| 20260510183329 | 86 | 132 | 3.0 | 11.0 | 0.00 | 0.00 | 0.00 | 69 | 1013.9 |
| 20260510182348 | 85 | 143 | 4.0 | 11.0 | 0.00 | 0.00 | 0.00 | 70 | 1013.9 |
| 20260510181330 | 85 | 134 | 6.0 | 11.0 | 0.00 | 0.00 | 0.00 | 70 | 1013.9 |
| 20260510180340 | 85 | 127 | 5.0 | 10.0 | 0.00 | 0.00 | 0.00 | 71 | 1014.0 |
| 20260510175331 | 85 | 139 | 4.0 | 11.0 | 0.00 | 0.00 | 0.00 | 71 | 1014.1 |
| 20260510174341 | 84 | 124 | 3.0 | 11.0 | 0.00 | 0.00 | 0.00 | 74 | 1014.2 |
| 20260510173330 | 84 | 148 | 4.0 | 11.0 | 0.00 | 0.00 | 0.00 | 72 | 1014.2 |
| 20260510172341 | 84 | 143 | 3.0 | 13.0 | 0.00 | 0.00 | 0.00 | 74 | 1014.4 |
| 20260510171331 | 83 | 131 | 4.0 | 10.0 | 0.00 | 0.00 | 0.00 | 75 | 1014.4 |
| 20260510170341 | 83 | 121 | 6.0 | 13.0 | 0.00 | 0.00 | 0.00 | 75 | 1014.6 |
| 20260510165331 | 82 | 99 | 4.0 | 14.0 | 0.00 | 0.12 | 0.00 | 77 | 1014.6 |
| 20260510164342 | 82 | 146 | 4.0 | 11.0 | 0.00 | 0.12 | 0.00 | 77 | 1014.8 |
| 20260510163333 | 81 | 132 | 5.0 | 12.0 | 0.00 | 0.12 | 0.00 | 78 | 1014.9 |
| 20260510162322 | 82 | 166 | 3.0 | 9.0 | 0.00 | 0.12 | 0.00 | 79 | 1015.0 |
| 20260510161328 | 81 | 130 | 5.0 | 8.0 | 0.00 | 0.12 | 0.00 | 79 | 1014.9 |
| 20260510160339 | 81 | 172 | 2.0 | 9.0 | 0.00 | 0.12 | 0.00 | 81 | 1014.9 |
| 20260510155329 | 80 | 98 | 3.0 | 9.0 | 0.00 | 0.12 | 0.00 | 81 | 1015.1 |
| 20260510154340 | 79 | 131 | 3.0 | 11.0 | 0.00 | 0.12 | 0.00 | 83 | 1015.0 |
| 20260510153332 | 80 | 91 | 5.0 | 9.0 | 0.00 | 0.12 | 0.00 | 81 | 1014.8 |
| 20260510152340 | 79 | 63 | 3.0 | 9.0 | 0.00 | 0.12 | 0.00 | 80 | 1014.8 |
| 20260510151350 | 79 | 74 | 5.0 | 8.0 | 0.00 | 0.12 | 0.00 | 82 | 1014.9 |
| 20260510150339 | 79 | 98 | 5.0 | 8.0 | 0.00 | 0.12 | 0.00 | 83 | 1014.7 |
| 20260510145350 | 78 | 45 | 3.0 | 7.0 | 0.00 | 0.12 | 0.00 | 83 | 1014.7 |
| 20260510144332 | 78 | 101 | 3.0 | 8.0 | 0.00 | 0.12 | 0.00 | 82 | 1014.7 |
| 20260510143322 | 78 | 86 | 5.0 | 7.0 | 0.00 | 0.12 | 0.00 | 81 | 1014.5 |
| 20260510142333 | 78 | 86 | 3.0 | 6.0 | 0.00 | 0.12 | 0.00 | 82 | 1014.5 |
| 20260510141323 | 78 | 96 | 3.0 | 5.0 | 0.00 | 0.12 | 0.00 | 82 | 1014.5 |
| 20260510140332 | 78 | 137 | 3.0 | 6.0 | 0.00 | 0.12 | 0.00 | 80 | 1014.4 |
| 20260510135323 | 77 | 124 | 2.0 | 6.0 | 0.00 | 0.12 | 0.00 | 82 | 1014.3 |
| 20260510134335 | 77 | 143 | 1.0 | 5.0 | 0.00 | 0.12 | 0.00 | 83 | 1014.1 |
| 20260510133325 | 75 | 131 | 3.0 | 7.0 | 0.00 | 0.12 | 0.00 | 85 | 1013.9 |
| 20260510132334 | 75 | 122 | 2.0 | 6.0 | 0.00 | 0.12 | 0.00 | 85 | 1013.7 |
| 20260510131326 | 74 | 132 | 2.0 | 5.0 | 0.00 | 0.12 | 0.00 | 86 | 1013.5 |
| 20260510130337 | 74 | 139 | 2.0 | 5.0 | 0.00 | 0.12 | 0.00 | 87 | 1013.4 |
| 20260510125328 | 73 | 125 | 1.0 | 4.0 | 0.00 | 0.12 | 0.00 | 88 | 1013.1 |
| 20260510124338 | 72 | 98 | 0.0 | 2.0 | 0.00 | 0.12 | 0.00 | 91 | 1013.0 |
| 20260510123329 | 71 | 98 | 1.0 | 3.0 | 0.00 | 0.12 | 0.00 | 92 | 1012.9 |
| 20260510122340 | 70 | 131 | 0.0 | 1.0 | 0.00 | 0.12 | 0.00 | 92 | 1012.8 |
| 20260510121330 | 70 | 131 | 0.0 | 2.0 | 0.00 | 0.12 | 0.00 | 93 | 1012.5 |
| 20260510120338 | 69 | 131 | 0.0 | 2.0 | 0.00 | 0.12 | 0.00 | 94 | 1012.4 |
| 20260510115347 | 68 | 134 | 0.0 | 4.0 | 0.00 | 0.12 | 0.00 | 95 | 1012.1 |
| 20260510114339 | 68 | 193 | 1.0 | 4.0 | 0.00 | 0.12 | 0.00 | 95 | 1011.8 |
| 20260510113346 | 68 | 191 | 1.0 | 3.0 | 0.00 | 0.12 | 0.00 | 95 | 1011.8 |
| 20260510112329 | 67 | 154 | 0.0 | 1.0 | 0.00 | 0.12 | 0.00 | 95 | 1011.9 |
| 20260510111349 | 67 | 154 | 0.0 | 0.0 | 0.00 | 0.12 | 0.00 | 94 | 1011.9 |
| 20260510110330 | 67 | 154 | 0.0 | 0.0 | 0.00 | 0.12 | 0.00 | 94 | 1012.0 |
| 20260510105343 | 68 | 154 | 0.0 | 0.0 | 0.00 | 0.12 | 0.00 | 93 | 1012.0 |
| 20260510104324 | 68 | 154 | 0.0 | 1.0 | 0.00 | 0.12 | 0.00 | 93 | 1011.9 |
| 20260510103335 | 69 | 154 | 0.0 | 0.0 | 0.00 | 0.12 | 0.00 | 92 | 1011.9 |
| 20260510102326 | 69 | 154 | 0.0 | 0.0 | 0.00 | 0.12 | 0.00 | 92 | 1011.9 |
| 20260510101337 | 69 | 154 | 0.0 | 3.0 | 0.00 | 0.12 | 0.00 | 92 | 1011.7 |
| 20260510100326 | 69 | 196 | 0.0 | 2.0 | 0.00 | 0.12 | 0.00 | 91 | 1011.4 |
| 20260510095334 | 70 | 191 | 0.0 | 3.0 | 0.00 | 0.12 | 0.00 | 91 | 1011.6 |
| 20260510094323 | 70 | 153 | 1.0 | 4.0 | 0.00 | 0.12 | 0.00 | 91 | 1011.2 |
| 20260510093331 | 70 | 154 | 1.0 | 5.0 | 0.00 | 0.12 | 0.00 | 90 | 1010.8 |
| 20260510092341 | 70 | 147 | 1.0 | 4.0 | 0.00 | 0.12 | 0.00 | 90 | 1011.1 |
| 20260510091332 | 70 | 132 | 1.0 | 4.0 | 0.00 | 0.12 | 0.00 | 89 | 1011.1 |
| 20260510090323 | 71 | 163 | 1.0 | 5.0 | 0.00 | 0.12 | 0.00 | 89 | 1011.0 |
| 20260510085334 | 71 | 142 | 1.0 | 4.0 | 0.00 | 0.12 | 0.00 | 89 | 1011.1 |
| 20260510084326 | 71 | 159 | 1.0 | 4.0 | 0.00 | 0.12 | 0.00 | 88 | 1010.9 |
| 20260510083336 | 71 | 165 | 1.0 | 4.0 | 0.00 | 0.12 | 0.00 | 88 | 1011.1 |
| 20260510082326 | 72 | 134 | 1.0 | 5.0 | 0.00 | 0.12 | 0.00 | 87 | 1011.3 |
| 20260510081338 | 72 | 131 | 1.0 | 5.0 | 0.00 | 0.12 | 0.00 | 87 | 1011.5 |
| 20260510080329 | 72 | 153 | 2.0 | 5.0 | 0.00 | 0.12 | 0.00 | 86 | 1011.6 |
| 20260510075333 | 72 | 191 | 2.0 | 6.0 | 0.00 | 0.12 | 0.00 | 86 | 1011.4 |
| 20260510074343 | 73 | 217 | 0.0 | 4.0 | 0.00 | 0.12 | 0.00 | 85 | 1011.5 |
| 20260510073332 | 73 | 163 | 1.0 | 5.0 | 0.00 | 0.12 | 0.00 | 84 | 1011.5 |
| 20260510072343 | 73 | 169 | 3.0 | 6.0 | 0.00 | 0.12 | 0.00 | 84 | 1011.7 |
| 20260510071324 | 74 | 146 | 3.0 | 8.0 | 0.00 | 0.12 | 0.00 | 83 | 1011.6 |
| 20260510070341 | 74 | 153 | 2.0 | 6.0 | 0.00 | 0.12 | 0.00 | 83 | 1011.6 |
| 20260510065350 | 74 | 146 | 2.0 | 7.0 | 0.00 | 0.12 | 0.00 | 82 | 1011.4 |
| 20260510064331 | 74 | 145 | 2.0 | 7.0 | 0.00 | 0.12 | 0.00 | 82 | 1011.3 |
| 20260510063351 | 74 | 110 | 3.0 | 6.0 | 0.00 | 0.12 | 0.00 | 81 | 1011.3 |
| 20260510062331 | 74 | 112 | 3.0 | 7.0 | 0.00 | 0.12 | 0.00 | 80 | 1011.3 |
| 20260510061351 | 74 | 146 | 2.0 | 7.0 | 0.00 | 0.12 | 0.00 | 80 | 1011.4 |
| 20260510060329 | 74 | 149 | 1.0 | 5.0 | 0.00 | 0.12 | 0.00 | 81 | 1011.4 |
| 20260510055340 | 74 | 158 | 1.0 | 5.0 | 0.00 | 0.12 | 0.00 | 81 | 1011.3 |
| 20260510054332 | 74 | 184 | 2.0 | 5.0 | 0.00 | 0.12 | 0.00 | 84 | 1011.3 |
| 20260510053340 | 74 | 141 | 1.0 | 4.0 | 0.00 | 0.12 | 0.00 | 87 | 1011.2 |
| 20260510052331 | 73 | 128 | 0.0 | 3.0 | 0.00 | 0.12 | 0.00 | 89 | 1011.2 |
| 20260510051338 | 73 | 145 | 0.0 | 2.0 | 0.00 | 0.12 | 0.00 | 91 | 1011.3 |
| 20260510050328 | 73 | 143 | 0.0 | 1.0 | 0.00 | 0.12 | 0.00 | 91 | 1011.3 |
| 20260510045340 | 73 | 143 | 0.0 | 1.0 | 0.00 | 0.12 | 0.12 | 90 | 1011.3 |
| 20260510044330 | 73 | 143 | 0.0 | 1.0 | 0.00 | 0.12 | 0.12 | 89 | 1011.2 |
| 20260510043340 | 74 | 143 | 0.0 | 1.0 | 0.00 | 0.12 | 0.12 | 88 | 1011.2 |
| 20260510042331 | 74 | 143 | 0.0 | 1.0 | 0.00 | 0.12 | 0.12 | 88 | 1011.2 |
| 20260510041336 | 75 | 143 | 0.0 | 1.0 | 0.00 | 0.12 | 0.12 | 88 | 1011.2 |
| 20260510040326 | 75 | 143 | 0.0 | 0.0 | 0.00 | 0.12 | 0.12 | 86 | 1011.3 |
| 20260510035332 | 75 | 143 | 0.0 | 1.0 | 0.00 | 0.12 | 0.12 | 85 | 1011.1 |
| 20260510034323 | 76 | 143 | 0.0 | 1.0 | 0.00 | 0.12 | 0.12 | 85 | 1011.0 |
| 20260510033333 | 76 | 143 | 0.0 | 1.0 | 0.00 | 0.12 | 0.12 | 84 | 1011.0 |
| 20260510032344 | 76 | 143 | 0.0 | 0.0 | 0.00 | 0.12 | 0.12 | 83 | 1010.8 |
| 20260510031336 | 76 | 143 | 0.0 | 1.0 | 0.00 | 0.12 | 0.12 | 83 | 1010.8 |
| 20260510030347 | 76 | 143 | 0.0 | 1.0 | 0.00 | 0.12 | 0.12 | 83 | 1010.6 |
| 20260510025338 | 77 | 143 | 0.0 | 0.0 | 0.00 | 0.12 | 0.12 | 82 | 1010.5 |
| 20260510024349 | 77 | 143 | 0.0 | 0.0 | 0.00 | 0.12 | 0.12 | 82 | 1010.5 |
| 20260510023330 | 78 | 143 | 0.0 | 1.0 | 0.00 | 0.12 | 0.12 | 79 | 1010.2 |
| 20260510022349 | 79 | 143 | 0.0 | 1.0 | 0.00 | 0.12 | 0.12 | 77 | 1010.0 |
| 20260510021331 | 79 | 143 | 0.0 | 0.0 | 0.00 | 0.12 | 0.12 | 76 | 1009.9 |
| 20260510020323 | 80 | 143 | 0.0 | 1.0 | 0.00 | 0.12 | 0.12 | 76 | 1009.8 |
| 20260510015330 | 81 | 143 | 0.0 | 1.0 | 0.00 | 0.12 | 0.12 | 75 | 1009.5 |
| 20260510014340 | 81 | 145 | 1.0 | 4.0 | 0.00 | 0.12 | 0.12 | 75 | 1009.5 |
| 20260510013331 | 82 | 140 | 1.0 | 3.0 | 0.00 | 0.12 | 0.12 | 74 | 1009.3 |
| 20260510012322 | 82 | 130 | 1.0 | 3.0 | 0.00 | 0.12 | 0.12 | 73 | 1009.1 |
| 20260510011334 | 83 | 132 | 0.0 | 4.0 | 0.00 | 0.12 | 0.12 | 72 | 1009.2 |
| 20260510010324 | 84 | 123 | 1.0 | 5.0 | 0.00 | 0.12 | 0.12 | 71 | 1009.1 |
| 20260510005331 | 85 | 124 | 1.0 | 4.0 | 0.00 | 0.12 | 0.12 | 70 | 1009.1 |
| 20260510004338 | 86 | 116 | 1.0 | 4.0 | 0.00 | 0.12 | 0.12 | 68 | 1009.0 |
| 20260510003329 | 87 | 132 | 2.0 | 5.0 | 0.00 | 0.12 | 0.12 | 67 | 1008.9 |
| 20260510002340 | 87 | 127 | 1.0 | 7.0 | 0.00 | 0.12 | 0.12 | 65 | 1008.8 |
| 20260510001330 | 88 | 135 | 3.0 | 7.0 | 0.00 | 0.12 | 0.12 | 64 | 1008.7 |
| 20260510000341 | 89 | 129 | 2.0 | 7.0 | 0.00 | 0.12 | 0.12 | 63 | 1008.7 |
| 20260509235331 | 90 | 127 | 2.0 | 5.0 | 0.00 | 0.12 | 0.12 | 57 | 1008.5 |
| 20260509234339 | 92 | 82 | 1.0 | 4.0 | 0.00 | 0.12 | 0.12 | 55 | 1008.4 |
| 20260509233330 | 93 | 162 | 1.0 | 2.0 | 0.00 | 0.12 | 0.12 | 51 | 1008.3 |
| 20260509232339 | 93 | 212 | 1.0 | 3.0 | 0.00 | 0.12 | 0.12 | 52 | 1008.4 |
| 20260509231350 | 94 | 108 | 1.0 | 3.0 | 0.00 | 0.12 | 0.12 | 51 | 1008.3 |
| 20260509230341 | 94 | 259 | 0.0 | 1.0 | 0.00 | 0.12 | 0.12 | 47 | 1008.3 |
| 20260509225323 | 93 | 96 | 1.0 | 3.0 | 0.00 | 0.12 | 0.12 | 51 | 1008.5 |
| 20260509224341 | 94 | 111 | 1.0 | 3.0 | 0.00 | 0.12 | 0.12 | 49 | 1008.5 |
| 20260509223350 | 92 | 98 | 0.0 | 4.0 | 0.00 | 0.12 | 0.12 | 53 | 1008.4 |
| 20260509222332 | 91 | 58 | 2.0 | 4.0 | 0.00 | 0.12 | 0.12 | 55 | 1008.4 |